Location: Finnegan
(51.1333°N, 112.0833°W)
Time: 01:27:42
(UTC+00:00)

N. Korean satellite - Pass Details

Date: 09 December 2021
Orbit: 446 x 492 km, 97.3° (Epoch: 16 January)

Event Time Altitude Azimuth Distance (km) Brightness Sun altitude
Rises 13:17:42 0° 8° (N) 2,466 10.1 -18.1°
Reaches altitude 10° 13:19:47 10° 3° (N) 1,587 9.0 -17.8°
Maximum altitude 13:23:03 47° 288° (WNW) 607 6.6 -17.3°
Drops below altitude 10° 13:26:18 10° 214° (SW) 1,575 9.0 -16.8°
Sets 13:28:22 0° 208° (SSW) 2,445 10.0 -16.5°
